Printer-friendly version
Follow the MPC on Twitter Follow the MPC on Facebook The MPC blog
Minor Planet Center

MPEC 2010-N16 : 2010 NH

The following Minor Planet Electronic Circular may be linked-to from your own Web pages, but must not otherwise be redistributed electronically.

A form allowing access to any MPEC is at the bottom of this page.


Read MPEC 2010-N15 Read MPEC 2010-N17


M.P.E.C. 2010-N16                                Issued 2010 July 5, 17:52 UT

     The Minor Planet Electronic Circulars contain information on unusual
         minor planets and routine data on comets.  They are published
   on behalf of Commission 20 of the International Astronomical Union by the
          Minor Planet Center, Smithsonian Astrophysical Observatory,
                          Cambridge, MA 02138, U.S.A.

             Prepared using the Tamkin Foundation Computer Network

                              MPC@CFA.HARVARD.EDU
       URL http://www.minorplanetcenter.org/iau/mpc.html  ISSN 1523-6714

                                    2010 NH

Observations:
     K10N00H* C2010 07 04.42235 21 14 22.48 -03 24 29.9          18.9 V EN016G96
     K10N00H  C2010 07 04.42840 21 14 20.11 -03 23 25.2          18.9 V EN016G96
     K10N00H  C2010 07 04.43443 21 14 17.73 -03 22 19.5          19.1 V EN016G96
     K10N00H  C2010 07 04.46661 21 14 05.28 -03 16 35.5          19.0 V EN016G96
     K10N00H  C2010 07 04.46710 21 14 05.10 -03 16 30.3          19.0 V EN016G96
     K10N00H  C2010 07 04.46755 21 14 04.92 -03 16 25.3          18.9 V EN016G96
     K10N00H  C2010 07 04.46802 21 14 04.74 -03 16 20.3          19.2 V EN016G96
     K10N00H  C2010 07 04.46998 21 14 03.98 -03 15 59.4          18.9 V EN016G96
     K10N00H  C2010 07 04.47046 21 14 03.84 -03 15 54.4          18.9 V EN016G96
     K10N00H  C2010 07 04.47095 21 14 03.62 -03 15 49.1          19.2 V EN016G96
     K10N00H  C2010 07 04.47146 21 14 03.44 -03 15 43.7          19.1 V EN016G96
     K10N00H KC2010 07 04.97906 21 12 13.89 -01 56 15.9                 EN016J95
     K10N00H KC2010 07 04.98886 21 12 11.12 -01 54 52.1                 EN016J95
     K10N00H KC2010 07 04.99935 21 12 08.18 -01 53 22.7          19.2 R EN016J95
     K10N00H SC2010 07 05.04791 21 11 51.18 -01 46 16.5          19.2 R EN016473
     K10N00H SC2010 07 05.05486 21 11 49.08 -01 45 18.5          19.2 R EN016473
     K10N00H KC2010 07 05.31756521 10 56.12 -01 10 09.7          19.9 V EN016H21
     K10N00H KC2010 07 05.32559421 10 53.82 -01 09 09.4          19.9 V EN016H21
     K10N00H KC2010 07 05.33402121 10 51.38 -01 08 05.9          19.9 V EN016H21
     K10N00H  C2010 07 05.36447 21 10 48.63 -01 03 51.2          19.4 R EN016854
     K10N00H  C2010 07 05.36883 21 10 47.36 -01 03 18.9          19.5 R EN016854
     K10N00H  C2010 07 05.38191 21 10 43.46 -01 01 41.1          19.8 R EN016854

Observer details:
473 Remanzacco.  Observers L. Donato, V. Gonano, E. Guido, G. Sostero.  0.45-m
    f/4.4 Newtonian reflector + CCD.
854 Sabino Canyon Observatory, Tucson.  Observer J. E. McGaha.  0.36-m f/10.0
    Schmidt-Cassegrain + CCD.
G96 Mt. Lemmon Survey.  Observer A. Boattini.  Measurers J. D. Ahern,
    E. C. Beshore, A. Boattini, G. J. Garradd, A. R. Gibbs, A. D. Grauer,
    R. E. Hill, R. A. Kowalski, S. M. Larson, R. H. McNaught.  1.5-m reflector
    + CCD.
H21 Astronomical Research Observatory, Westfield.  Observer R. Holmes.  0.81-m
    f/4.0 astrograph + CCD.
J95 Great Shefford.  Observer P. Birtwhistle.  0.40-m f/6.0 Schmidt-Cassegrain
    + CCD.

Orbital elements:
2010 NH                                                  Earth MOID = 0.0061 AU
Epoch 2010 July 23.0 TT = JDT 2455400.5                 MPC
M  15.99738              (2000.0)            P               Q
n   0.32842392     Peri.  325.39210     -0.40018769     +0.90749358
a   2.0805566      Node   280.72176     -0.80871859     -0.41524692
e   0.5363961      Incl.    7.46732     -0.43107315     -0.06344598
P   3.00           H   25.5           G   0.15           U   7
Residuals in seconds of arc
100704 G96  0.3-  0.0     100704 G96  0.0   0.0     100705 H21  0.0   0.2-
100704 G96  0.1-  0.7-    100704 G96  0.5-  0.1+    100705 H21  0.2+  0.4-
100704 G96  0.2-  0.1+    100704 G96  0.3-  0.1+    100705 H21  0.1-  0.2-
100704 G96  0.3-  0.2-    100704 J95  0.4-  0.0     100705 854  0.1+  0.2-
100704 G96  0.2-  0.2-    100704 J95  0.5-  0.0     100705 854  0.1+  0.2-
100704 G96  0.3-  0.0     100704 J95  0.1+  0.0     100705 854  1.3-  1.0+
100704 G96  0.4-  0.0     100705 473  0.6-  0.4-
100704 G96  0.6-  0.1+    100705 473  0.5-  0.4-

Ephemeris:
2010 NH                  a,e,i = 2.08, 0.54, 7                   q = 0.9646
Date    TT    R. A. (2000) Decl.     Delta      r     Elong.  Phase     V
2010 07 03    21 23.83   -09 27.5    0.0186   1.031   140.2    39.1    18.5
2010 07 04    21 16.55   -04 44.7    0.0242   1.035   140.5    38.6    19.0
2010 07 05    21 12.01   -01 49.5    0.0299   1.040   140.8    38.2    19.5
2010 07 06    21 08.88   +00 08.5    0.0357   1.045   141.1    37.7    19.9
2010 07 07    21 06.55   +01 32.8    0.0416   1.050   141.5    37.1    20.2
2010 07 08    21 04.73   +02 35.5    0.0474   1.054   142.0    36.4    20.5
2010 07 09    21 03.24   +03 23.4    0.0533   1.059   142.5    35.7    20.7
2010 07 10    21 01.99   +04 01.0    0.0592   1.065   143.1    35.0    20.9
2010 07 11    21 00.91   +04 30.8    0.0652   1.070   143.7    34.3    21.1
2010 07 12    20 59.95   +04 54.7    0.0711   1.075   144.3    33.5    21.3
2010 07 13    20 59.08   +05 14.0    0.0771   1.081   144.9    32.7    21.5
2010 07 14    20 58.29   +05 29.6    0.0831   1.086   145.6    32.0    21.6
2010 07 15    20 57.57   +05 42.2    0.0891   1.092   146.2    31.2    21.8
2010 07 16    20 56.89   +05 52.2    0.0952   1.097   146.9    30.4    21.9
2010 07 17    20 56.26   +06 00.2    0.101    1.103   147.5    29.7    22.0
2010 07 18    20 55.66   +06 06.3    0.107    1.109   148.2    28.9    22.1
2010 07 19    20 55.09   +06 10.9    0.114    1.115   148.8    28.1    22.3
2010 07 20    20 54.55   +06 14.1    0.120    1.121   149.5    27.4    22.4
2010 07 21    20 54.04   +06 16.1    0.126    1.127   150.1    26.7    22.5
2010 07 22    20 53.55   +06 17.0    0.132    1.133   150.7    26.0    22.6
2010 07 23    20 53.08   +06 17.0    0.139    1.140   151.4    25.3    22.7
2010 07 24    20 52.62   +06 16.1    0.145    1.146   152.0    24.6    22.7
2010 07 25    20 52.19   +06 14.4    0.151    1.152   152.5    24.0    22.8
2010 07 26    20 51.77   +06 12.0    0.158    1.159   153.1    23.3    22.9
2010 07 27    20 51.37   +06 09.0    0.164    1.165   153.7    22.7    23.0

Carl W. Hergenrother         (C) Copyright 2010 MPC           M.P.E.C. 2010-N16

Read MPEC 2010-N15 Read MPEC 2010-N17


MPEC number:

Enter an MPEC number in one of the following forms:

  • 1997-B01 (the full form)
  • J97B01 (the packed version of the full form)
  • B01 (the abbreviated form)

Valid HTML 4.01!